Location: City of Moscow
(46.7306°N, 116.9989°W)
Time: 04:21:46
(UTC+00:00)

YAOGAN 11 - Pass Details

Date: 11 December 2025
Orbit: 599 x 649 km, 98.4° (Epoch: 13 January)

Event Time Altitude Azimuth Distance (km) Brightness Sun altitude
Rises 14:45:18 0° 159° (SSE) 2,906 8.3 -6.4°
Reaches altitude 10° 14:47:30 10° 158° (SSE) 1,996 7.5 -6.1°
Maximum altitude 14:51:49 74° 74° (ENE) 648 4.3 -5.4°
Drops below altitude 10° 14:56:07 10° 349° (N) 1,981 6.3 -4.8°
Sets 14:58:18 0° 348° (NNW) 2,884 7.1 -4.4°
